[[{"header":{"parameterUnit":"m.s-1","parameterCategory":1,"la1":30.2991,"la2":30.254,"lo1":-89.0895,"lo2":-89.0444,"dy":0.0017,"dx":0.0017,"nx":28,"ny":28,"refTime":"2025-08-04T03:00:00:Z","depth":0,"parameterNumber":2,"parameterNumberName":"U-component_of_WINDS"},"data":[0,0,0,0,0,0,0,0,0,0,0,0,0,0,0,0,0,0,0,0,0,0,0,0,0,0,0,0,0,0,0,0,0,0,0,0,0,0,0,0,0,0,0,0,0,0,0,0,0,0,0,0,0,0,0,0,0,0,0.6746,0.6746,0,0.6719,0.6719,0.6719,0.6706,0.6706,0.6707,0.6707,0.6672,0.6671,0.667,0,0,0,0,0,0,0,0,0,0,0,0,0,0.6783,0.6782,0.6746,0.6746,0.6745,0.6719,0.6719,0.6719,0.6706,0.6706,0.6707,0.6707,0.6672,0.6671,0.667,0,0,0,0,0,0,0,0,0,0,0,0,0,0.6762,0.6782,0.6746,0.6736,0.6735,0.6719,0.6719,0.6719,0.6706,0.6706,0.6707,0.6707,0.6672,0.6671,0.667,0.6659,0,0,0.6665,0.6665,0,0,0,0,0,0,0,0,0.6763,0.6761,0.6738,0.6737,0.6736,0.6717,0.6719,0.6698,0.6706,0.6717,0.6707,0.6707,0.6686,0.6684,0.6678,0.6658,0.6656,0.6665,0.6664,0.6664,0.6663,0,0,0,0,0,0,0,0.6765,0.6762,0.6735,0.6738,0.6736,0.6732,0.6729,0.6715,0.6701,0.6716,0.6715,0.6713,0.6685,0.668,0.6677,0.6656,0.6665,0.6664,0.6663,0.6662,0.6629,0.6629,0,0,0,0,0,0,0.6769,0.6763,0.6736,0.6734,0.675,0.6731,0.6728,0.6722,0.6701,0.6698,0.6713,0.6712,0.6682,0.6679,0.6676,0.6665,0.6664,0.6662,0.6661,0.6629,0.6629,0.6629,0,0,0,0,0,0,0.6769,0.6766,0.6737,0.6749,0.6745,0.6731,0.6724,0.6722,0.6716,0.6699,0.6696,0.671,0.6682,0.6678,0.6665,0.6663,0.6662,0.666,0.6629,0.6629,0.6629,0.6641,0,0,0,0,0,0,0.6771,0.6767,0.6763,0.6749,0.6744,0.6728,0.6724,0.6721,0.6714,0.6714,0.6695,0.6692,0.6682,0.6667,0.6663,0.6661,0.6659,0.6629,0.6629,0.6629,0.664,0.6641,0.6642,0,0,0,0,0,0.6772,0.6765,0.6763,0.676,0.674,0.6728,0.6725,0.6715,0.6714,0.671,0.67,0.6693,0.6664,0.6666,0.6662,0.6659,0.6629,0.6629,0.6629,0.664,0.6641,0.6642,0,0,0,0,0,0,0.6776,0.6763,0.676,0.6749,0.674,0.6726,0.672,0.6716,0.6704,0.6704,0.669,0.6686,0.6675,0.6665,0.6667,0.665,0.6646,0.6645,0.6656,0.6657,0.6657,0.666,0.6658,0,0,0,0,0,0.6776,0.6769,0.6757,0.6748,0.6744,0.6734,0.6727,0.6722,0.671,0.6706,0.6694,0.6682,0.6671,0.6663,0.6652,0.664,0.6636,0.6636,0.6637,0.6637,0.6636,0.6632,0.6633,0.6629,0.6629,0.6629,0,0,0.6775,0.6767,0.6763,0.6749,0.6741,0.6734,0.673,0.6721,0.6715,0.6703,0.6692,0.6683,0.6669,0.6658,0.6651,0.6649,0.6637,0.6637,0.6638,0.6637,0.6632,0.6633,0.6633,0.6629,0.6629,0.6629,0,0,0.6769,0.6763,0.6756,0.675,0.674,0.6733,0.6732,0.6719,0.6714,0.6703,0.6696,0.6688,0.6668,0.6659,0.6652,0.6649,0.6642,0.6645,0.6648,0.6644,0.6645,0.6645,0.6645,0.6645,0.6645,0.6645,0.6645,0,0.6768,0.6758,0.6752,0.6745,0.674,0.6734,0.6727,0.6721,0.6706,0.6702,0.6701,0.6679,0.6669,0.6656,0.6657,0.665,0.6649,0.6647,0.6646,0.6646,0.6646,0.6646,0.6646,0.6645,0.6645,0.6645,0.6645,0,0.6759,0.6752,0.6747,0.6738,0.6733,0.6725,0.6718,0.6713,0.6709,0.6703,0.6693,0.6681,0.6669,0.6665,0.6659,0.6653,0.6653,0.6649,0.6644,0.6647,0.6647,0.6647,0.6646,0.6646,0.6646,0.6646,0,0,0.6751,0.6743,0.6741,0.6738,0.6729,0.6723,0.6717,0.6708,0.6705,0.6696,0.669,0.6677,0.6675,0.6667,0.666,0.6657,0.6658,0.6653,0.6653,0.6655,0.6653,0.6656,0.6656,0.6654,0.6654,0.6654,0.6654,0,0.6744,0.6735,0.6732,0.6723,0.6718,0.6714,0.6709,0.6703,0.6698,0.6692,0.6685,0.6677,0.6674,0.6669,0.6666,0.6658,0.6657,0.6658,0.6648,0.6648,0.6652,0.6656,0.6658,0.6659,0.6654,0.6654,0.6654,0,0.6734,0.673,0.6723,0.6718,0.6716,0.6711,0.6705,0.67,0.6693,0.669,0.6684,0.6679,0.6672,0.6671,0.6662,0.6663,0.6659,0.6655,0.6655,0.6653,0.6651,0.6654,0.6658,0.6659,0.6654,0.6654,0.6654,0,0.6731,0.6723,0.6719,0.6716,0.671,0.6708,0.6705,0.6699,0.6695,0.6689,0.6687,0.6679,0.6675,0.6669,0.6663,0.6662,0.6655,0.6652,0.6652,0.6652,0.6649,0.665,0.6654,0.6647,0.6647,0.6647,0.6647,0,0.6724,0.672,0.6718,0.6715,0.6711,0.6707,0.6703,0.6699,0.6695,0.6691,0.6687,0.6683,0.6675,0.667,0.6664,0.6659,0.6657,0.6654,0.6652,0.6654,0.6655,0.6651,0.665,0.6647,0.6647,0.6647,0.6647,0,0.6719,0.6717,0.6712,0.6709,0.6709,0.6706,0.6703,0.67,0.6697,0.6692,0.6691,0.6685,0.668,0.6674,0.6664,0.6661,0.6657,0.6654,0.666,0.6659,0.666,0.666,0.6661,0.6662,0.6655,0.6655,0.6655,0,0.6714,0.6711,0.671,0.6709,0.6707,0.6704,0.6702,0.67,0.6697,0.6693,0.6691,0.6686,0.6682,0.6674,0.6668,0.6662,0.666,0.6661,0.6658,0.6662,0.6661,0.6662,0.6662,0.6661,0.6661,0.6661,0.6661,0,0.6706,0.6707,0.6705,0.6705,0.6703,0.6701,0.6699,0.6698,0.6695,0.6693,0.669,0.6687,0.6682,0.6677,0.6672,0.6668,0.6664,0.6663,0.6663,0.6664,0.6668,0.6667,0.6662,0.6662,0.6662,0.6662,0.6662,0.6662,0.6701,0.67,0.67,0.6699,0.6699,0.6699,0.6697,0.6696,0.6694,0.6691,0.669,0.6687,0.6684,0.6677,0.6674,0.6671,0.6669,0.6669,0.6669,0.6669,0.667,0.667,0.667,0.667,0.667,0.667,0.667,0,0.6694,0.6696,0.6695,0.6695,0.6695,0.6696,0.6695,0.6694,0.6693,0.6691,0.6689,0.6687,0.6684,0.6681,0.6678,0.6676,0.6675,0.6676,0.6675,0.6675,0.6671,0.6672,0.6677,0.6677,0.6677,0.6677,0.6677,0.6677,0.669,0.669,0.6691,0.6691,0.6692,0.6692,0.6691,0.6691,0.6691,0.669,0.6689,0.6688,0.6686,0.6684,0.6682,0.6681,0.668,0.6681,0.668,0.6676,0.6675,0.6674,0.6675,0.6681,0.6681,0.6684,0.6684,0.6684]},{"header":{"parameterUnit":"m.s-1","parameterCategory":1,"la1":30.2991,"la2":30.254,"lo1":-89.0895,"lo2":-89.0444,"dy":0.0017,"dx":0.0017,"nx":28,"ny":28,"refTime":"2025-08-04T03:00:00:Z","depth":0,"parameterNumber":3,"parameterNumberName":"V-component_of_WINDS"},"data":[0,0,0,0,0,0,0,0,0,0,0,0,0,0,0,0,0,0,0,0,0,0,0,0,0,0,0,0,0,0,0,0,0,0,0,0,0,0,0,0,0,0,0,0,0,0,0,0,0,0,0,0,0,0,0,0,0,0,-3.499,-3.4989,0,-3.4964,-3.4963,-3.4963,-3.4928,-3.4927,-3.4926,-3.4926,-3.4898,-3.4898,-3.4898,0,0,0,0,0,0,0,0,0,0,0,0,0,-3.5007,-3.5007,-3.499,-3.4989,-3.4989,-3.4964,-3.4963,-3.4963,-3.4928,-3.4927,-3.4926,-3.4926,-3.4898,-3.4898,-3.4898,0,0,0,0,0,0,0,0,0,0,0,0,0,-3.4992,-3.5007,-3.499,-3.4968,-3.4966,-3.4964,-3.4963,-3.4963,-3.4928,-3.4927,-3.4926,-3.4925,-3.4898,-3.4898,-3.4898,-3.4914,0,0,-3.4897,-3.4897,0,0,0,0,0,0,0,0,-3.4993,-3.4992,-3.4972,-3.497,-3.4967,-3.4948,-3.4959,-3.4946,-3.4928,-3.4942,-3.4926,-3.4925,-3.4915,-3.4914,-3.4911,-3.4913,-3.4911,-3.4897,-3.4897,-3.4897,-3.4896,0,0,0,0,0,0,0,-3.4994,-3.4992,-3.4979,-3.4972,-3.4969,-3.496,-3.4956,-3.4957,-3.4934,-3.4941,-3.4938,-3.4936,-3.4914,-3.4911,-3.491,-3.4911,-3.4897,-3.4897,-3.4896,-3.4896,-3.4922,-3.4923,0,0,0,0,0,0,-3.4999,-3.4994,-3.498,-3.4979,-3.4978,-3.496,-3.4957,-3.4955,-3.4934,-3.493,-3.4937,-3.4934,-3.4912,-3.491,-3.4909,-3.4924,-3.4897,-3.4896,-3.4896,-3.4921,-3.4922,-3.4923,0,0,0,0,0,0,-3.4999,-3.4998,-3.4981,-3.4985,-3.4983,-3.4961,-3.4959,-3.4955,-3.4952,-3.4931,-3.4926,-3.4938,-3.4911,-3.4909,-3.4912,-3.4923,-3.4896,-3.4896,-3.492,-3.4922,-3.4923,-3.4956,0,0,0,0,0,0,-3.5,-3.4998,-3.5004,-3.4986,-3.4982,-3.4986,-3.496,-3.4955,-3.4952,-3.4948,-3.4931,-3.4927,-3.491,-3.4913,-3.4912,-3.4922,-3.4896,-3.4919,-3.4921,-3.4922,-3.4954,-3.4959,-3.4962,0,0,0,0,0,-3.5,-3.5015,-3.5005,-3.5004,-3.499,-3.4987,-3.4985,-3.4966,-3.4953,-3.4958,-3.4945,-3.4927,-3.4922,-3.4914,-3.4912,-3.4922,-3.4918,-3.492,-3.4922,-3.4952,-3.4958,-3.4962,0,0,0,0,0,0,-3.5035,-3.5012,-3.5001,-3.501,-3.5001,-3.4981,-3.4987,-3.4972,-3.4966,-3.4963,-3.494,-3.4936,-3.4941,-3.4932,-3.4923,-3.4935,-3.4918,-3.4919,-3.4941,-3.4946,-3.495,-3.4951,-3.4895,0,0,0,0,0,-3.5044,-3.5044,-3.5024,-3.5034,-3.503,-3.501,-3.5007,-3.4994,-3.4983,-3.4978,-3.4965,-3.4954,-3.495,-3.4948,-3.4943,-3.4953,-3.4948,-3.4959,-3.4963,-3.4967,-3.4968,-3.4971,-3.4975,-3.4929,-3.4929,-3.4929,0,0,-3.5062,-3.505,-3.5051,-3.5041,-3.5032,-3.5031,-3.5006,-3.5007,-3.5006,-3.4978,-3.498,-3.497,-3.4957,-3.4963,-3.4965,-3.4955,-3.498,-3.4969,-3.4972,-3.4971,-3.4973,-3.4977,-3.4981,-3.4931,-3.4931,-3.493,0,0,-3.5095,-3.5086,-3.5092,-3.5084,-3.5071,-3.5057,-3.5059,-3.5041,-3.5033,-3.5035,-3.5013,-3.5011,-3.5005,-3.4996,-3.499,-3.5018,-3.5002,-3.5018,-3.5038,-3.5041,-3.5045,-3.5048,-3.5056,-3.5059,-3.5019,-3.5019,-3.5019,0,-3.5118,-3.5117,-3.5098,-3.5099,-3.5094,-3.507,-3.5075,-3.5068,-3.5054,-3.5051,-3.504,-3.5031,-3.502,-3.5023,-3.503,-3.5027,-3.5027,-3.5019,-3.5046,-3.5049,-3.5051,-3.5058,-3.5062,-3.5021,-3.5021,-3.5021,-3.5021,0,-3.5146,-3.5146,-3.5152,-3.5139,-3.5135,-3.5139,-3.5119,-3.5117,-3.5104,-3.5091,-3.5092,-3.5079,-3.5069,-3.507,-3.5057,-3.507,-3.5064,-3.5051,-3.5032,-3.5058,-3.5064,-3.5067,-3.5024,-3.5023,-3.5023,-3.5022,0,0,-3.5199,-3.5174,-3.5177,-3.517,-3.5153,-3.5152,-3.5154,-3.5146,-3.5144,-3.5135,-3.5135,-3.513,-3.5116,-3.511,-3.5096,-3.5099,-3.5119,-3.5084,-3.5083,-3.5089,-3.513,-3.514,-3.5143,-3.5109,-3.5109,-3.5109,-3.5131,0,-3.5226,-3.5228,-3.521,-3.5217,-3.5215,-3.5192,-3.5193,-3.5183,-3.5171,-3.5167,-3.5153,-3.5149,-3.5133,-3.5129,-3.5131,-3.5116,-3.5127,-3.5115,-3.5106,-3.5106,-3.5109,-3.5147,-3.5157,-3.5178,-3.5133,-3.5134,-3.5134,0,-3.5258,-3.525,-3.5257,-3.5239,-3.5237,-3.5239,-3.5229,-3.5226,-3.5213,-3.5204,-3.5197,-3.5181,-3.518,-3.5164,-3.5162,-3.5154,-3.5149,-3.5142,-3.5142,-3.5139,-3.5121,-3.5143,-3.5184,-3.5187,-3.5138,-3.5138,-3.5138,0,-3.5293,-3.5285,-3.5287,-3.5282,-3.5262,-3.5263,-3.5255,-3.5241,-3.5236,-3.5228,-3.5224,-3.5215,-3.521,-3.5203,-3.5184,-3.5174,-3.5184,-3.5166,-3.5174,-3.5175,-3.5176,-3.5176,-3.5215,-3.5177,-3.5177,-3.5177,-3.5177,0,-3.5324,-3.5328,-3.5302,-3.5304,-3.5307,-3.5287,-3.5291,-3.528,-3.5268,-3.5266,-3.5245,-3.5243,-3.5219,-3.5215,-3.52,-3.5199,-3.5198,-3.5189,-3.5185,-3.519,-3.5191,-3.5185,-3.5183,-3.5177,-3.5177,-3.5177,-3.5177,0,-3.5363,-3.5346,-3.5346,-3.5327,-3.5322,-3.5326,-3.5309,-3.5308,-3.5295,-3.5293,-3.5291,-3.527,-3.5263,-3.5244,-3.5232,-3.5222,-3.5225,-3.5218,-3.5229,-3.5226,-3.5235,-3.5234,-3.5271,-3.5274,-3.5235,-3.5236,-3.5236,0,-3.5383,-3.5386,-3.5366,-3.5364,-3.5356,-3.5352,-3.5347,-3.5327,-3.5323,-3.5308,-3.5309,-3.5301,-3.5293,-3.5283,-3.5266,-3.5256,-3.5248,-3.5262,-3.5246,-3.5251,-3.5246,-3.5245,-3.5244,-3.5264,-3.5265,-3.5265,-3.5266,0,-3.5419,-3.5411,-3.5405,-3.5396,-3.5391,-3.5383,-3.5374,-3.5372,-3.5349,-3.5345,-3.5338,-3.5332,-3.532,-3.5311,-3.5299,-3.5289,-3.5273,-3.5271,-3.5272,-3.5276,-3.5282,-3.5277,-3.5236,-3.527,-3.5269,-3.5269,-3.5269,-3.5269,-3.5448,-3.5449,-3.5435,-3.5429,-3.542,-3.5411,-3.541,-3.5396,-3.539,-3.5379,-3.5368,-3.5361,-3.5347,-3.5329,-3.532,-3.5314,-3.5306,-3.5308,-3.5308,-3.5308,-3.531,-3.5284,-3.5312,-3.5312,-3.5312,-3.5312,-3.5311,0,-3.5481,-3.5472,-3.5466,-3.5454,-3.5449,-3.5435,-3.5424,-3.542,-3.5415,-3.5404,-3.5396,-3.5387,-3.5379,-3.5361,-3.535,-3.5349,-3.5341,-3.5346,-3.5345,-3.5343,-3.5319,-3.5318,-3.5353,-3.5353,-3.5353,-3.5353,-3.5353,-3.5353,-3.5498,-3.5498,-3.5488,-3.5483,-3.5473,-3.5467,-3.5461,-3.5453,-3.5443,-3.5435,-3.5427,-3.5416,-3.5402,-3.539,-3.538,-3.5375,-3.5372,-3.5379,-3.5371,-3.5349,-3.5345,-3.5341,-3.534,-3.5379,-3.5379,-3.5396,-3.5396,-3.5396]}]]